TimeEDT,TemperatureF,Dew PointF,Humidity,Sea Level PressureIn,VisibilityMPH,Wind Direction,Wind SpeedMPH,Gust SpeedMPH,PrecipitationIn,Events,Conditions,WindDirDegrees,DateUTC
12:56 AM,37.4,-18.4,9,-9999,120.0,WNW,17.3,-,N/A,,Overcast,300,2012-10-25 04:56:00
1:53 AM,35.6,-9.4,14,-9999,120.0,WNW,15.0,-,N/A,,Overcast,290,2012-10-25 05:53:00
2:57 AM,33.8,-11.2,14,-9999,120.0,WNW,12.7,-,N/A,,Overcast,290,2012-10-25 06:57:00
3:56 AM,33.8,-9.4,15,-9999,120.0,West,18.4,-,N/A,,Scattered Clouds,270,2012-10-25 07:56:00
4:55 AM,33.8,-4.0,20,-9999,120.0,West,26.5,-,N/A,,Scattered Clouds,270,2012-10-25 08:55:00
5:56 AM,35.6,-2.2,20,-9999,120.0,West,33.4,-,N/A,,Partly Cloudy,270,2012-10-25 09:56:00
6:57 AM,39.2,23.0,52,-9999,120.0,West,28.8,-,N/A,,Partly Cloudy,280,2012-10-25 10:57:00
7:49 AM,39.2,33.8,81,-9999,120.0,WNW,26.5,-,N/A,,Partly Cloudy,290,2012-10-25 11:49:00
8:52 AM,39.2,35.6,87,-9999,120.0,WNW,26.5,-,N/A,,Partly Cloudy,290,2012-10-25 12:52:00
9:51 AM,39.2,33.8,81,-9999,110.0,WNW,26.5,-,N/A,,Partly Cloudy,290,2012-10-25 13:51:00
10:51 AM,41.0,37.4,87,-9999,110.0,WNW,24.2,-,N/A,,Partly Cloudy,290,2012-10-25 14:51:00
11:50 AM,41.0,35.6,81,-9999,110.0,WNW,23.0,-,N/A,,Partly Cloudy,300,2012-10-25 15:50:00
12:53 PM,41.0,37.4,87,-9999,110.0,WNW,20.7,-,N/A,,Partly Cloudy,290,2012-10-25 16:53:00
1:53 PM,41.0,32.0,70,-9999,110.0,West,24.2,-,N/A,,Partly Cloudy,280,2012-10-25 17:53:00
2:59 PM,42.8,33.8,70,-9999,50.0,West,27.6,-,N/A,,Partly Cloudy,280,2012-10-25 18:59:00
3:52 PM,42.8,37.4,81,-9999,50.0,West,32.2,-,N/A,,Partly Cloudy,280,2012-10-25 19:52:00
4:54 PM,42.8,41.0,93,-9999,50.0,WNW,31.1,-,N/A,,Mostly Cloudy,290,2012-10-25 20:54:00
5:51 PM,41.0,39.2,93,-9999,20.0,WNW,25.3,-,N/A,,Partly Cloudy,290,2012-10-25 21:51:00
6:54 PM,41.0,41.0,100,-9999,0.1,WNW,29.9,-,N/A,Fog,Fog,290,2012-10-25 22:54:00
7:52 PM,42.8,42.8,100,-9999,0.1,WNW,25.3,-,N/A,Fog,Fog,300,2012-10-25 23:52:00
8:54 PM,46.4,44.6,93,-9999,70.0,NNW,21.9,-,N/A,,Partly Cloudy,330,2012-10-26 00:54:00
9:55 PM,44.6,42.8,93,-9999,65.0,NNE,9.2,-,N/A,,Partly Cloudy,30,2012-10-26 01:55:00
10:56 PM,44.6,42.8,93,-9999,60.0,NNE,9.2,-,N/A,,Mostly Cloudy,20,2012-10-26 02:56:00
11:58 PM,46.4,44.6,93,-9999,50.0,North,8.1,-,N/A,,Partly Cloudy,350,2012-10-26 03:58:00